When you browse on this site, cookies collect data to enhance your experience and personalize the content and advertising you see.
Visit our Privacy Policy to learn more. By continuing to use the site, you agree to this use of cookies and data.
  • En España
  • Lista de países
  • Para 7 días
  • Temperatura del agua
  • El tiempo en el mapa
  • Informadores
  • user-avatar
    Iniciar sesión

    Tiempo cada hora Zamar

    Hoy, 22 Agosto, Jueves

    Tiempo Temperatura Precipitaciones Viento Presión Humedad
    00:00 +22°C° 0.2 mm 1 mps 583 mmHg 60%
    01:00 +22°C° 0.1 mm 1 mps 583 mmHg 60%
    02:00 +21°C° 0.1 mm 1 mps 582 mmHg 60%
    03:00 +21°C° 0.1 mm 1 mps 582 mmHg 60%
    04:00 +21°C° 0 mm 1 mps 582 mmHg 62%
    05:00 +21°C° 0 mm 1 mps 582 mmHg 63%
    06:00 +18°C° 0 mm 0 mps 582 mmHg 65%
    07:00 +22°C° 0 mm 1 mps 583 mmHg 57%
    08:00 +23°C° 0 mm 1 mps 584 mmHg 49%
    09:00 +25°C° 0 mm 1 mps 585 mmHg 41%
    10:00 +25°C° 0.3 mm 2 mps 585 mmHg 43%
    11:00 +25°C° 0.3 mm 3 mps 585 mmHg 44%
    12:00 +25°C° 0.3 mm 3 mps 584 mmHg 45%
    13:00 +25°C° 1.3 mm 3 mps 584 mmHg 48%
    14:00 +25°C° 1.3 mm 3 mps 583 mmHg 51%
    15:00 +23°C° 1.3 mm 4 mps 583 mmHg 54%
    16:00 +22°C° 1.7 mm 3 mps 582 mmHg 57%
    17:00 +23°C° 1.7 mm 2 mps 582 mmHg 59%
    18:00 +21°C° 1.7 mm 2 mps 582 mmHg 62%
    19:00 +22°C° 0.5 mm 1 mps 582 mmHg 64%
    20:00 +22°C° 0.5 mm 1 mps 582 mmHg 66%
    21:00 +19°C° 0.5 mm 0 mps 582 mmHg 68%
    22:00 +19°C° 0 mm 0 mps 582 mmHg 68%
    23:00 +19°C° 0 mm 0 mps 582 mmHg 68%

    Mañana, 23 Agosto, Viernes

    Tiempo Temperatura Precipitaciones Viento Presión Humedad
    00:00 +21°C° 0 mm 1 mps 582 mmHg 68%
    01:00 +18°C° 0 mm 0 mps 582 mmHg 68%
    02:00 +18°C° 0 mm 0 mps 581 mmHg 67%
    03:00 +18°C° 0 mm 0 mps 581 mmHg 67%
    04:00 +18°C° 0 mm 0 mps 581 mmHg 67%
    05:00 +17°C° 0 mm 0 mps 581 mmHg 67%
    06:00 +17°C° 0 mm 0 mps 582 mmHg 68%
    07:00 +21°C° 0 mm 1 mps 583 mmHg 60%
    08:00 +22°C° 0 mm 1 mps 583 mmHg 53%
    09:00 +24°C° 0 mm 2 mps 584 mmHg 46%
    10:00 +24°C° 0.1 mm 2 mps 585 mmHg 45%
    11:00 +25°C° 0.1 mm 3 mps 585 mmHg 44%
    12:00 +25°C° 0.1 mm 3 mps 585 mmHg 43%
    13:00 +25°C° 0.9 mm 3 mps 584 mmHg 47%
    14:00 +24°C° 0.9 mm 3 mps 583 mmHg 51%
    15:00 +22°C° 0.9 mm 3 mps 582 mmHg 55%
    16:00 +21°C° 1.4 mm 3 mps 582 mmHg 59%
    17:00 +20°C° 1.4 mm 3 mps 582 mmHg 62%
    18:00 +19°C° 1.4 mm 3 mps 582 mmHg 65%
    19:00 +20°C° 0 mm 2 mps 582 mmHg 64%
    20:00 +21°C° 0 mm 1 mps 583 mmHg 62%
    21:00 +21°C° 0 mm 1 mps 583 mmHg 60%
    22:00 +21°C° 0 mm 1 mps 583 mmHg 60%
    23:00 +21°C° 0 mm 1 mps 583 mmHg 59%

    Pasado mañana, 24 Agosto, Sábado

    Tiempo Temperatura Precipitaciones Viento Presión Humedad
    00:00 +21°C° 0 mm 1 mps 583 mmHg 58%
    01:00 +21°C° 0 mm 1 mps 583 mmHg 58%
    02:00 +19°C° 0 mm 0 mps 583 mmHg 57%
    03:00 +19°C° 0 mm 0 mps 582 mmHg 57%
    04:00 +19°C° 0 mm 0 mps 582 mmHg 58%
    05:00 +18°C° 0 mm 0 mps 582 mmHg 59%
    06:00 +17°C° 0 mm 0 mps 582 mmHg 60%
    07:00 +19°C° 0 mm 0 mps 583 mmHg 52%
    08:00 +23°C° 0 mm 1 mps 584 mmHg 45%
    09:00 +24°C° 0 mm 1 mps 585 mmHg 37%
    10:00 +25°C° 0 mm 2 mps 585 mmHg 38%
    11:00 +25°C° 0 mm 2 mps 585 mmHg 39%
    12:00 +25°C° 0 mm 3 mps 585 mmHg 39%
    13:00 +25°C° 0.2 mm 3 mps 585 mmHg 42%
    14:00 +24°C° 0.2 mm 3 mps 584 mmHg 45%
    15:00 +23°C° 0.2 mm 4 mps 583 mmHg 47%
    16:00 +22°C° 1.1 mm 3 mps 583 mmHg 56%
    17:00 +20°C° 1.1 mm 3 mps 582 mmHg 64%
    18:00 +19°C° 1.1 mm 2 mps 582 mmHg 72%
    19:00 +19°C° 0.1 mm 2 mps 582 mmHg 69%
    20:00 +19°C° 0.1 mm 2 mps 583 mmHg 67%
    21:00 +20°C° 0.1 mm 2 mps 583 mmHg 65%
    22:00 +21°C° 0 mm 1 mps 583 mmHg 63%
    23:00 +21°C° 0 mm 1 mps 583 mmHg 62%

    25 Agosto, Domingo

    Tiempo Temperatura Precipitaciones Viento Presión Humedad
    00:00 +19°C° 0 mm 0 mps 583 mmHg 60%
    01:00 +19°C° 0 mm 0 mps 583 mmHg 61%
    02:00 +18°C° 0 mm 0 mps 582 mmHg 61%
    03:00 +18°C° 0 mm 0 mps 581 mmHg 62%
    04:00 +17°C° 0 mm 0 mps 582 mmHg 61%
    05:00 +17°C° 0 mm 0 mps 582 mmHg 61%
    06:00 +17°C° 0 mm 0 mps 582 mmHg 61%
    07:00 +20°C° 0 mm 1 mps 583 mmHg 54%
    08:00 +21°C° 0 mm 2 mps 584 mmHg 48%
    09:00 +24°C° 0 mm 2 mps 585 mmHg 42%
    10:00 +24°C° 0 mm 3 mps 585 mmHg 40%
    11:00 +25°C° 0 mm 3 mps 585 mmHg 38%
    12:00 +26°C° 0 mm 3 mps 585 mmHg 36%
    13:00 +26°C° 0.4 mm 3 mps 585 mmHg 39%
    14:00 +26°C° 0.4 mm 3 mps 584 mmHg 42%
    15:00 +25°C° 0.4 mm 3 mps 584 mmHg 45%
    16:00 +24°C° 1 mm 3 mps 583 mmHg 50%
    17:00 +24°C° 1 mm 3 mps 583 mmHg 55%
    18:00 +22°C° 1 mm 3 mps 582 mmHg 60%
    19:00 +21°C° 0.3 mm 2 mps 583 mmHg 63%
    20:00 +21°C° 0.3 mm 2 mps 583 mmHg 67%
    21:00 +21°C° 0.3 mm 1 mps 583 mmHg 71%
    22:00 +21°C° 0.1 mm 1 mps 583 mmHg 72%
    23:00 +21°C° 0.1 mm 1 mps 582 mmHg 72%

    26 Agosto, Lunes

    Tiempo Temperatura Precipitaciones Viento Presión Humedad
    00:00 +19°C° 0.1 mm 0 mps 582 mmHg 73%
    01:00 +18°C° 0 mm 0 mps 582 mmHg 72%
    02:00 +18°C° 0 mm 0 mps 581 mmHg 72%
    03:00 +18°C° 0 mm 0 mps 581 mmHg 72%
    04:00 +18°C° 0 mm 0 mps 581 mmHg 72%
    05:00 +17°C° 0 mm 0 mps 581 mmHg 73%
    06:00 +17°C° 0 mm 0 mps 581 mmHg 73%
    07:00 +21°C° 0 mm 1 mps 582 mmHg 64%
    08:00 +22°C° 0 mm 1 mps 584 mmHg 54%
    09:00 +24°C° 0 mm 2 mps 585 mmHg 45%
    10:00 +25°C° 0 mm 2 mps 585 mmHg 43%
    11:00 +26°C° 0 mm 3 mps 585 mmHg 41%
    12:00 +27°C° 0 mm 4 mps 585 mmHg 38%
    13:00 +26°C° 1.1 mm 4 mps 584 mmHg 45%
    14:00 +25°C° 1.1 mm 4 mps 583 mmHg 51%
    15:00 +24°C° 1.1 mm 3 mps 582 mmHg 57%
    16:00 +22°C° 1.6 mm 3 mps 582 mmHg 61%
    17:00 +21°C° 1.6 mm 2 mps 581 mmHg 65%
    18:00 +19°C° 1.6 mm 2 mps 581 mmHg 69%
    19:00 +21°C° 0.2 mm 1 mps 581 mmHg 69%
    20:00 +21°C° 0.2 mm 1 mps 582 mmHg 70%
    21:00 +21°C° 0.2 mm 1 mps 582 mmHg 70%
    22:00 +21°C° 0 mm 1 mps 582 mmHg 69%
    23:00 +21°C° 0 mm 1 mps 582 mmHg 69%

    27 Agosto, Martes

    Tiempo Temperatura Precipitaciones Viento Presión Humedad
    00:00 +21°C° 0 mm 1 mps 582 mmHg 68%
    01:00 +21°C° 0 mm 1 mps 581 mmHg 66%
    02:00 +21°C° 0 mm 1 mps 581 mmHg 65%
    03:00 +20°C° 0 mm 1 mps 581 mmHg 64%
    04:00 +20°C° 0 mm 1 mps 581 mmHg 64%
    05:00 +20°C° 0 mm 1 mps 581 mmHg 65%
    06:00 +20°C° 0 mm 1 mps 582 mmHg 65%
    07:00 +21°C° 0 mm 1 mps 583 mmHg 58%
    08:00 +23°C° 0 mm 1 mps 584 mmHg 50%
    09:00 +24°C° 0 mm 2 mps 585 mmHg 43%
    10:00 +24°C° 0.2 mm 2 mps 584 mmHg 44%
    11:00 +25°C° 0.2 mm 3 mps 584 mmHg 46%
    12:00 +25°C° 0.2 mm 4 mps 584 mmHg 48%
    13:00 +24°C° 1.1 mm 3 mps 583 mmHg 50%
    14:00 +24°C° 1.1 mm 3 mps 583 mmHg 52%
    15:00 +24°C° 1.1 mm 3 mps 582 mmHg 53%
    16:00 +22°C° 1.1 mm 3 mps 582 mmHg 56%
    17:00 +23°C° 1.1 mm 2 mps 582 mmHg 59%
    18:00 +21°C° 1.1 mm 2 mps 582 mmHg 63%
    19:00 +21°C° 0.5 mm 2 mps 582 mmHg 64%
    20:00 +21°C° 0.5 mm 1 mps 582 mmHg 66%
    21:00 +21°C° 0.5 mm 1 mps 583 mmHg 67%
    22:00 +21°C° 0.1 mm 1 mps 582 mmHg 65%
    23:00 +21°C° 0.1 mm 1 mps 582 mmHg 63%
    Mostrar más